Location: State Line Observation Field
(36.5320°N, 77.5360°W)
Time: 10:38:25
(UTC-04:00)

Envisat - Pass Details

Date: 06 March 2021
Orbit: 764 x 766 km, 98.1° (Epoch: 13 April)

Event Time Altitude Azimuth Distance (km) Brightness Sun altitude
Rises 04:50:38 0° 28° (NNE) 3,236 6.8 -21.4°
Reaches altitude 10° 04:53:24 10° 42° (NE) 2,305 6.2 -20.9°
Maximum altitude 04:57:24 23° 95° (E) 1,579 5.4 -20.1°
Drops below altitude 10° 05:01:22 10° 147° (SSE) 2,292 5.8 -19.3°
Sets 05:04:06 0° 161° (SSE) 3,213 6.4 -18.8°
